Overview Statistics Trail Chart Weather Telemetry Raw packets
 

This is the latest recevied weather packets stored in our database for station/object DH8TOM-3. If no packets are shown the sender has not sent any weather packets the latest 10 day(s).

<< 8 9 10 11 12 13 14 >>
Time Temp. Humidity Pressure Rain* Wind** Luminosity Snow
1788557797 18.33° C 85% 1012 hPa 0.51 mm - - -
1788557496 18.33° C 85% 1011.9 hPa 0.51 mm - - -
1788557195 18.33° C 85% 1011.9 hPa 0.51 mm - - -
1788556895 18.33° C 85% 1011.8 hPa 0.76 mm - - -
1788556626 18.33° C 85% 1011.8 hPa 0.76 mm - - -
1788556293 18.33° C 85% 1011.1 hPa 1.27 mm - - -
1788555991 18.33° C 85% 1011.1 hPa 1.27 mm - - -
1788555690 18.33° C 85% 1011.7 hPa 2.03 mm - - -
1788555389 18.33° C 85% 1011.7 hPa 2.03 mm - - -
1788555088 18.33° C 85% 1011.6 hPa 4.32 mm - - -
1788554787 18.33° C 85% 1011.6 hPa 4.32 mm - - -
1788554486 18.33° C 85% 1011.4 hPa 5.84 mm - - -
1788554184 18.33° C 85% 1011.4 hPa 5.84 mm - - -
1788553884 18.33° C 84% 1011 hPa 6.86 mm - - -
1788553583 18.33° C 84% 1011 hPa 6.86 mm - - -
1788553282 18.33° C 84% 1011.2 hPa 6.6 mm - - -
1788552980 18.33° C 84% 1011.2 hPa 6.6 mm - - -
1788552680 18.33° C 83% 1011.1 hPa 6.35 mm - - -
1788552379 18.33° C 83% 1011.1 hPa 6.35 mm - - -
1788552078 18.33° C 83% 1010.9 hPa 5.84 mm - - -
1788551777 18.33° C 83% 1010.9 hPa 5.84 mm - - -
1788551478 18.89° C 81% 1010.5 hPa 3.3 mm - - -
1788551194 18.89° C 81% 1010.5 hPa 3.3 mm - - -
1788550934 18.89° C 80% 1010.6 hPa 1.52 mm - - -
1788550573 18.89° C 80% 1010.6 hPa 1.52 mm - - -

* Rain latest hour (hover to see other rain measurements)
** Current wind speed in m/s (hover to see current wind gust speed)